Location: Newark
(40.9833°N, 0.0333°W)
Time: 09:38:39
(UTC+00:00)

Transit 4A - Pass Details

Date: 29 October 2020
Orbit: 862 x 982 km, 66.8° (Epoch: 26 November)

Event Time Altitude Azimuth Distance (km) Brightness Sun altitude
Rises 15:22:46 0° 224° (SW) 3,580 12.7 15.5°
Reaches altitude 10° 15:25:20 10° 230° (SW) 2,657 13.0 15.1°
Maximum altitude 15:31:22 51° 305° (NW) 1,193 8.9 14.2°
Drops below altitude 10° 15:37:35 10° 21° (NNE) 2,732 9.9 13.2°
Sets 15:40:17 0° 27° (NNE) 3,689 10.5 12.7°
